Powrót do katalogu

STARLINK-37931

AktywnyŁącznośćVLEO
NORAD 69963·PAYLOAD·🇺🇸 United States

Wystrzelony Jul 9, 2026 z Cape Canaveral Space Force Station

Loading…

Następne Przeloty (najbliższe 24 godziny)

TLE

ŚwieżeSource: CelesTrak SupGP

Epoka: Sep 15, 2026, 02:57 UTC

1 69963C 26157W   26258.12340278  .00067990  00000+0  20095-2 0  2580
2 69963  53.1586 358.9128 0001321  92.7712   9.4136 15.34345551    14

Śledź STARLINK-37931 w czasie rzeczywistym z AllMySat

Download on the App Store